Location: Haliburton Scout Reserve
(45.0900°N, 78.3200°W)
Time: 16:57:51
(UTC-04:00)

JY1SAT - Pass Details

Date: 22 June 2024
Orbit: 536 x 549 km, 97.5° (Epoch: 11 July)

Event Time Altitude Azimuth Distance (km) Brightness Sun altitude
Exits shadow 23:30:48 - 226° (SW) 2,409 ? -17.4°
Reaches altitude 10° 23:33:52 10° 261° (W) 1,823 ? -17.7°
Maximum altitude 23:34:34 10° 272° (W) 1,800 ? -17.7°
Drops below altitude 10° 23:35:16 10° 282° (WNW) 1,827 ? -17.8°
Sets 23:39:22 0° 324° (NW) 2,733 ? -18.1°
